Location: Andershausen
(51.8462°N, 9.8595°E)
Time: 05:55:40
(UTC+00:00)

BREEZE-M DEB (TANK) - Pass Details

Date: 18 November 2025
Orbit: 304 x 15917 km, 49.3° (Epoch: 09 December)

Event Time Altitude Azimuth Distance (km) Brightness Sun altitude
Rises 17:30:37 0° 246° (WSW) 2,140 6.7 -18.9°
Reaches altitude 10° 17:31:58 10° 240° (WSW) 1,479 5.5 -19.1°
Maximum altitude 17:34:43 56° 161° (SSE) 757 2.8 -19.5°
Enters shadow 17:36:22 36° 102° (ESE) 1,270 3.6 -19.8°
